Lapse_Rate
6.7 6.5 6.4 6.5 6.5 6.6 6.6 6.4 6.4 6.3 6.3 6.3 6.3 6.3 6.3 6.2 6.3 6.3 6.2 6.2 6.3 6.3 6.3 6.3 6.3 6.2 6.1 6.2 6.0 5.8 5.8 6.1 6.1 6.1 6.3 6.5 6.5 6.5 6.5 6.4 6.3 6.4 6.7 6.6 6.5
6.7 6.6 6.6 6.6 6.7 6.7 6.7 6.6 6.5 6.5 6.3 6.2 6.2 6.3 6.2 6.3 6.3 6.3 6.3 6.3 6.4 6.4 6.4 6.3 6.2 6.1 6.1 6.1 6.0 5.8 6.0 6.1 6.0 6.2 6.2 6.3 6.4 6.6 6.7 6.6 6.5 6.4 6.6 6.6 6.5
6.6 6.6 6.7 6.7 6.7 6.7 6.7 6.7 6.6 6.4 6.2 6.2 6.2 6.1 6.1 6.3 6.4 6.4 6.4 6.4 6.4 6.3 6.3 6.2 6.3 6.2 6.1 6.2 6.0 6.0 6.4 6.1 6.1 6.3 6.3 6.3 6.4 6.5 6.7 7.0 6.6 6.6 6.9 6.7 6.5
6.5 6.6 6.6 6.7 6.8 6.8 6.8 6.7 6.5 6.3 6.1 6.1 6.0 6.1 6.2 6.4 6.4 6.5 6.4 6.4 6.4 6.4 6.3 6.3 6.3 6.3 6.1 6.1 5.8 6.1 6.3 6.1 6.4 6.5 6.4 6.5 6.7 6.8 7.0 6.8 6.7 6.7 6.9 7.0 6.7
6.4 6.6 6.7 6.8 6.8 6.8 6.8 6.6 6.4 6.3 6.1 6.1 6.1 6.1 6.3 6.6 6.5 6.5 6.5 6.4 6.4 6.4 6.4 6.3 6.2 6.1 6.0 5.9 5.7 6.4 6.5 6.3 6.5 6.7 6.6 6.7 6.8 6.9 7.5 6.8 6.7 6.7 6.8 7.1 6.9
6.4 6.5 6.6 6.8 6.8 6.8 6.8 6.7 6.6 6.4 6.3 6.2 6.1 6.2 6.4 6.6 6.6 6.6 6.6 6.5 6.5 6.5 6.4 6.4 6.2 6.3 6.3 6.2 6.0 6.2 6.5 6.6 6.7 6.7 6.7 6.8 6.9 7.1 7.4 6.7 6.9 6.9 7.0 6.9 7.0
6.5 6.5 6.6 6.7 6.8 6.9 6.9 6.8 6.7 6.6 6.4 6.3 6.3 6.3 6.5 6.4 6.6 6.7 6.6 6.6 6.5 6.5 6.4 6.4 6.4 6.2 6.4 6.3 6.3 6.3 6.4 6.6 7.1 6.8 6.6 6.8 7.2 7.3 7.0 7.2 7.0 6.8 6.9 7.0 7.0
6.6 6.6 6.7 6.7 6.8 6.9 6.9 6.9 6.8 6.7 6.6 6.5 6.5 6.6 6.6 6.7 7.0 6.7 6.8 6.7 6.6 6.6 6.6 6.4 6.3 6.1 6.3 6.2 6.2 6.3 6.3 6.8 7.1 6.7 6.7 6.4 7.1 7.1 7.0 6.9 7.0 6.8 6.8 6.9 6.9
6.8 6.9 6.9 6.9 6.9 6.9 6.9 6.9 6.9 6.8 6.7 6.7 6.7 6.8 6.9 6.9 6.9 7.0 6.8 6.9 6.8 6.7 6.6 6.6 6.4 6.2 6.3 6.2 6.2 6.6 6.5 6.7 6.7 6.8 6.6 6.4 6.6 7.0 6.9 6.8 6.9 7.0 6.8 6.8 6.8
7.1 7.1 7.1 7.1 7.1 7.0 7.0 7.0 7.0 7.0 7.0 6.9 6.9 6.9 7.0 6.9 6.8 6.8 6.7 6.8 6.7 6.8 6.8 6.7 6.3 6.4 6.9 6.6 6.5 7.1 6.5 6.5 6.5 6.5 6.3 6.1 6.4 6.8 6.8 6.5 6.8 7.0 7.0 7.0 7.0
7.1 7.2 7.1 7.1 7.1 7.1 7.2 7.2 7.1 7.2 7.2 7.0 7.0 7.0 7.0 7.1 7.0 6.9 6.6 6.6 6.7 6.7 6.9 6.4 6.2 7.3 7.6 6.9 6.6 6.6 6.2 6.2 6.9 7.0 6.1 6.1 6.2 6.7 6.9 6.7 7.0 7.2 7.4 7.1 7.1
7.1 7.1 7.2 7.1 7.2 7.1 7.0 7.1 7.0 7.0 7.6 7.3 7.4 7.4 7.4 7.6 7.3 7.1 6.6 6.5 6.6 6.8 6.4 6.2 6.6 7.4 6.9 6.6 6.2 6.3 6.0 6.2 6.7 7.1 6.3 6.2 5.9 6.2 6.8 7.0 7.0 7.5 7.9 7.7 7.5
7.1 7.1 7.1 7.2 7.1 7.1 7.0 7.0 7.0 6.9 7.1 7.8 7.8 7.6 7.5 7.4 7.1 7.1 6.7 6.4 6.4 6.3 6.5 6.2 6.7 6.7 6.7 6.7 6.2 6.3 6.0 6.3 6.2 6.5 6.2 6.0 5.6 6.2 7.1 7.1 7.4 7.6 7.6 7.7 7.7
7.1 7.1 7.1 7.0 7.1 7.1 7.1 7.0 6.9 6.8 6.9 7.4 7.3 7.5 7.4 7.1 6.8 7.0 6.8 6.3 5.9 6.3 6.2 5.8 6.3 6.7 6.7 6.3 6.4 5.9 6.6 6.4 6.4 6.2 6.0 6.2 4.5 5.8 7.1 7.0 7.5 8.0 7.6 7.3 7.7
7.2 7.3 7.2 7.2 7.1 7.1 7.0 7.0 6.9 6.7 5.0 7.3 7.2 7.2 7.2 7.0 7.1 7.1 6.8 6.4 6.4 6.1 5.8 6.3 6.3 6.3 6.3 7.0 6.8 6.3 6.3 6.2 6.2 6.3 6.1 5.9 5.9 5.9 6.5 6.8 7.3 7.2 7.3 7.5 7.4
7.0 7.1 7.0 7.3 7.2 7.1 7.0 6.9 6.7 6.6 5.2 7.2 7.1 7.1 7.0 7.0 6.9 6.8 6.8 6.6 6.8 6.4 6.2 6.7 6.9 6.4 6.9 6.6 6.7 6.4 6.3 6.4 6.4 6.2 5.0 5.9 6.4 5.9 6.8 7.2 7.5 7.7 7.9 7.8 7.6
6.7 6.8 6.8 6.8 6.8 6.7 6.6 6.6 6.5 6.5 7.2 6.6 6.4 6.5 6.6 6.8 6.7 6.9 6.9 6.8 6.7 6.5 6.7 6.8 6.9 7.0 6.8 6.4 6.4 6.6 6.3 5.7 5.5 4.4 4.7 7.0 6.4 6.8 7.2 6.4 6.3 6.7 7.2 7.3 7.4
6.5 6.7 6.7 6.7 6.6 6.4 6.3 6.3 6.2 6.5 6.3 6.1 6.3 6.6 6.5 6.9 6.5 6.5 6.4 6.6 6.8 6.7 6.2 6.0 6.1 7.1 7.2 7.2 7.4 7.1 6.6 6.3 5.5 5.0 5.4 6.6 6.1 6.4 6.9 7.0 6.9 7.1 7.0 6.8 6.8
6.5 6.6 6.7 6.8 6.6 6.3 6.2 6.1 5.5 5.6 6.0 6.2 6.7 6.5 6.4 6.6 6.3 6.2 6.3 6.3 6.4 6.2 6.1 6.4 6.3 6.6 6.6 6.6 6.7 6.2 6.0 6.8 6.9 6.5 5.9 6.4 6.8 7.1 7.1 7.0 6.8 6.6 6.6 6.8 6.2
6.8 6.7 6.9 7.0 6.8 6.4 6.1 6.0 5.5 5.5 5.7 5.8 5.8 6.0 6.0 6.4 6.4 6.2 5.9 6.0 6.2 6.2 5.5 5.8 5.9 6.1 6.4 6.6 6.4 6.7 6.7 6.5 6.6 6.2 5.9 5.8 6.3 6.6 6.8 6.0 5.8 6.3 6.0 6.3 6.5
7.1 7.1 7.1 6.9 6.5 6.2 5.8 5.8 5.5 5.7 5.6 5.5 5.4 5.2 5.2 4.9 5.1 5.4 5.6 5.7 5.7 6.3 7.0 6.1 5.9 5.6 6.1 6.1 6.7 7.1 7.0 7.0 7.3 7.7 6.4 5.9 4.4 4.3 4.4 4.7 4.8 5.0 5.7 6.0 6.1
7.2 7.2 7.1 7.0 6.8 6.4 5.9 5.8 5.8 5.6 5.7 5.5 5.3 5.1 4.8 4.4 4.4 4.8 5.2 5.4 5.2 5.3 5.7 6.2 5.8 5.8 5.9 6.3 6.8 7.4 7.5 7.5 7.3 6.8 7.3 7.3 4.8 3.4 2.7 3.6 3.7 4.1 4.4 5.0 5.9
7.5 7.5 7.3 7.0 6.7 6.2 5.8 5.6 5.6 5.6 5.9 5.6 5.2 4.9 4.7 4.8 4.7 4.5 4.7 4.8 4.8 5.2 5.4 5.2 5.7 5.3 6.0 6.6 6.8 6.8 6.3 5.9 5.9 6.1 6.2 6.6 3.8 2.6 2.7 2.9 3.9 4.5 5.0 5.2 5.4
7.5 7.3 7.2 7.0 6.7 6.5 6.3 5.9 5.4 5.1 5.0 4.9 4.7 4.3 4.4 4.3 4.4 4.6 4.5 4.5 5.3 5.3 4.8 4.6 4.7 5.0 5.2 4.5 4.5 5.0 5.0 5.0 4.9 5.1 5.2 4.5 3.1 2.7 2.9 3.3 3.4 3.9 4.4 4.7 5.0
7.3 7.0 6.6 6.4 6.2 5.8 5.7 5.9 5.6 5.2 5.0 4.4 4.0 3.9 3.8 3.5 3.9 4.3 4.5 4.8 5.2 5.1 4.9 4.5 4.1 4.5 4.8 5.2 5.0 4.1 4.2 4.6 4.3 3.8 3.8 3.3 2.9 2.2 2.2 2.6 3.1 2.8 3.0 3.2 3.7
6.9 6.4 6.2 5.8 5.7 5.3 5.0 4.9 4.5 4.4 4.1 4.3 4.3 4.2 4.2 3.8 3.4 3.5 4.2 4.5 4.4 4.9 4.8 5.0 4.2 4.9 4.9 5.5 4.5 4.1 3.3 3.2 3.3 2.5 2.3 2.6 2.6 2.3 2.1 2.2 2.7 3.2 2.9 2.9 2.9
6.1 5.9 5.8 5.2 4.9 4.6 4.5 4.2 4.0 3.7 3.8 3.7 3.6 3.5 4.0 4.3 4.4 4.6 4.5 4.7 4.6 4.4 4.9 5.0 5.7 5.7 4.9 5.7 5.2 4.6 2.7 2.6 2.4 2.5 2.3 2.2 1.5 2.2 2.7 3.1 3.4 3.5 3.1 3.0 2.9
Wind_Speed
12 9 8 7 8 7 8 9 8 9 8 7 7 7 7 7 10 2 5 8 7 14 7 4 2 4 1 2 1 2 3 3 4 2 0 2 2 3 4 2 2 3 5 4 16
15 13 10 9 9 8 8 8 8 7 6 6 6 6 5 6 2 7 8 11 15 13 5 8 5 4 0 4 1 3 3 7 4 1 0 1 3 6 3 3 3 4 6 12 15
17 15 13 10 9 9 8 8 8 7 6 5 5 5 4 4 3 6 16 15 14 11 2 3 3 5 4 3 5 5 6 4 4 3 2 2 4 4 6 6 7 9 12 14 11
19 17 15 12 10 9 8 8 7 7 6 6 5 4 4 1 2 2 12 13 11 8 1 2 3 7 4 6 7 4 9 7 5 3 3 3 3 5 7 9 5 9 18 14 15
20 19 17 14 11 9 9 8 7 6 7 5 5 3 1 1 7 6 11 11 7 5 4 3 3 5 3 4 3 6 5 7 8 6 6 3 8 6 9 10 10 6 16 17 14
21 20 18 16 12 9 9 7 6 6 6 6 5 2 1 3 2 13 9 6 5 5 5 5 5 5 5 5 2 3 3 6 7 7 5 5 4 3 8 9 12 9 10 15 16
23 22 21 18 15 11 9 7 7 6 6 6 4 3 2 10 8 13 8 5 4 4 3 5 1 3 3 5 4 3 6 8 8 6 5 6 7 10 17 3 8 10 10 11 15
25 25 24 21 17 13 11 9 7 6 6 6 5 2 6 2 3 9 6 3 4 4 2 1 4 1 2 3 6 3 0 3 5 9 4 6 9 8 9 10 12 9 8 11 13
27 27 26 24 21 15 10 8 6 7 6 6 3 3 7 3 4 6 6 5 4 3 2 2 4 5 0 2 4 2 4 6 7 5 5 5 8 6 1 8 9 9 10 10 10
29 29 29 27 23 16 10 2 5 5 3 3 3 2 4 4 4 5 6 7 3 4 2 2 1 2 1 4 6 6 5 6 5 5 2 5 14 12 11 6 10 10 10 11 11
30 30 29 27 26 16 3 2 2 1 4 9 7 4 6 2 4 3 4 4 4 2 5 4 3 10 12 12 7 4 4 8 6 6 7 10 15 15 9 8 11 15 14 12 13
30 30 31 28 29 18 2 4 2 2 7 10 11 6 3 6 3 4 6 6 5 6 3 1 9 11 7 7 9 10 11 10 7 4 8 8 11 11 9 8 14 19 13 14 9
31 30 31 31 27 4 4 3 1 1 2 5 2 3 4 6 4 9 11 5 5 5 7 7 7 4 8 10 9 11 7 6 9 4 3 5 9 8 9 5 11 13 11 9 12
31 31 29 33 3 4 2 1 2 2 4 3 0 1 3 3 3 3 9 5 4 9 7 8 15 16 13 6 8 8 7 9 6 3 5 5 6 5 9 14 10 11 7 6 4
31 30 28 18 3 3 2 4 2 2 4 1 3 2 2 5 2 2 2 3 3 3 2 9 3 5 8 15 9 10 6 5 2 4 2 1 3 6 3 6 13 7 6 6 4
33 28 21 2 1 2 6 4 3 5 5 2 3 3 2 2 1 2 1 3 2 4 7 10 3 4 7 1 3 4 3 3 4 3 4 8 7 2 5 6 3 5 6 7 8
34 27 10 4 1 7 4 3 5 4 4 2 2 3 3 4 5 6 5 4 5 1 5 4 10 8 5 3 1 3 6 2 3 0 8 4 5 10 8 26 21 8 9 10 10
35 19 4 2 6 5 2 4 3 2 5 6 6 5 4 1 6 5 4 2 7 5 3 4 10 10 6 13 8 7 9 6 6 5 4 2 6 3 11 21 24 22 19 10 15
21 3 2 4 6 3 4 3 3 5 6 7 6 4 5 7 7 6 6 3 2 7 5 4 6 0 3 4 7 3 5 7 3 2 1 5 5 6 26 27 28 27 20 14 15
2 2 3 8 4 3 4 2 5 5 7 5 3 5 5 8 8 8 6 3 12 11 11 8 11 11 3 3 1 5 3 2 2 4 6 5 2 5 21 22 23 26 23 19 18
3 3 3 14 3 4 3 3 4 10 11 9 6 5 5 6 5 6 4 5 11 13 9 12 5 5 3 5 8 1 3 5 3 5 7 6 2 8 12 15 17 19 21 21 20
2 3 5 4 4 3 3 4 6 6 9 7 4 6 3 8 5 7 5 3 11 9 7 8 5 7 10 4 6 5 6 6 9 9 5 11 4 8 11 12 15 16 17 18 19
2 1 5 5 4 3 5 6 5 6 6 6 5 5 4 3 4 3 5 5 6 12 4 6 3 6 7 3 5 7 8 8 8 4 11 10 4 8 10 14 14 16 16 16 17
3 3 4 5 2 4 3 3 5 10 4 5 2 4 2 3 4 5 6 6 12 10 7 6 4 7 7 10 9 7 8 9 3 4 6 5 8 11 11 11 14 15 14 12 13
4 3 0 3 5 4 3 5 5 6 6 7 3 8 5 4 6 5 4 5 3 6 4 2 4 8 11 12 10 8 8 12 5 6 2 3 6 6 9 6 7 8 12 14 15
3 3 4 3 5 5 8 6 6 5 3 4 4 9 5 5 9 10 6 3 5 5 3 5 5 8 16 13 7 13 13 9 10 8 5 5 4 12 9 5 9 9 11 11 11
3 3 3 5 4 4 3 4 6 5 5 4 7 7 7 10 6 12 12 14 16 11 14 5 3 2 5 2 7 4 11 9 9 11 4 6 5 12 13 12 7 9 10 10 10
Wind_Direction
10 355 337 320 300 290 283 281 283 281 286 294 304 307 308 320 304 187 233 225 182 178 158 153 212 243 61 253 163 64 52 251 255 5 238 293 117 354 155 135 2 149 142 168 141
12 4 354 336 315 308 290 284 278 276 277 286 293 292 310 330 264 237 234 162 147 158 143 154 182 192 163 195 216 120 157 229 231 191 197 190 178 179 167 216 235 81 48 126 142
9 3 358 343 327 314 298 284 276 273 269 265 268 278 305 332 337 247 188 158 159 166 171 185 188 167 201 154 200 197 210 222 296 159 88 329 309 223 185 231 211 197 173 160 164
5 2 355 347 333 314 302 282 277 275 271 258 267 284 313 165 273 201 146 153 153 154 294 217 195 168 213 215 204 211 230 240 276 197 153 213 297 277 206 218 182 181 177 169 175
3 -0 355 349 339 321 299 283 270 268 265 267 277 304 182 197 250 170 156 149 136 144 200 206 193 177 226 225 228 223 249 256 257 203 216 201 249 242 260 245 245 223 161 185 188
360 357 354 350 343 326 306 283 262 245 251 261 270 261 160 249 154 156 151 154 167 165 195 200 203 198 263 253 193 257 237 271 271 240 233 200 252 162 253 245 239 222 188 188 191
357 355 352 347 340 325 306 291 259 237 229 245 245 238 226 235 159 162 159 192 182 177 179 231 198 175 351 293 305 312 315 311 251 221 220 153 284 232 246 217 220 222 202 197 201
354 352 349 347 341 332 314 294 256 226 221 226 224 229 244 271 167 148 186 132 156 208 133 50 84 68 189 297 334 261 238 297 283 140 192 120 268 263 258 194 226 230 215 203 206
352 350 348 346 344 336 321 297 234 208 205 203 180 174 268 325 148 192 155 166 149 97 76 90 90 195 99 135 342 272 243 221 308 177 132 168 262 253 95 174 233 236 229 220 216
350 348 346 344 341 338 333 340 151 143 219 210 269 5 263 222 173 172 195 143 152 129 82 149 135 179 131 120 227 216 228 246 242 211 133 191 259 268 274 299 257 244 233 224 213
349 345 342 340 337 337 23 88 34 289 220 195 194 217 138 86 46 96 120 125 104 158 182 213 152 214 197 204 222 267 264 258 258 228 168 228 243 257 257 263 253 253 239 231 220
348 343 339 337 333 323 196 79 108 196 299 252 246 259 136 166 113 199 122 165 178 206 195 192 238 234 205 216 232 257 259 265 282 247 183 258 259 258 252 235 242 257 247 227 229
347 343 337 334 327 348 72 80 8 43 267 299 232 196 171 141 213 202 154 186 198 205 205 197 223 184 198 238 252 248 222 250 252 286 248 307 278 247 265 259 264 254 249 223 217
343 340 336 332 13 331 60 22 346 67 29 262 63 358 94 108 264 211 181 186 233 214 214 239 242 240 253 229 199 257 215 240 258 250 248 147 285 246 262 265 274 270 213 196 150
338 336 333 329 288 38 336 347 359 56 10 106 118 315 94 149 135 11 9 28 229 255 183 243 244 202 229 241 182 243 201 214 223 246 355 240 320 276 224 282 264 282 198 168 104
332 330 331 107 255 321 336 346 58 53 259 91 116 148 115 221 215 111 96 37 270 259 256 249 260 230 215 86 181 137 101 38 49 85 273 212 178 280 226 249 337 1 86 97 74
329 325 314 288 324 329 347 58 51 146 319 51 75 160 221 201 213 175 169 175 197 227 255 297 243 226 164 192 28 163 91 299 309 72 241 227 173 258 329 7 10 4 42 38 43
332 330 159 79 339 352 61 59 174 274 11 355 356 280 218 270 244 183 149 252 244 223 276 239 294 170 199 203 186 192 168 176 211 202 252 116 222 107 15 22 15 14 7 26 37
336 339 42 315 338 35 77 80 28 27 322 338 339 5 344 22 7 349 213 269 286 208 212 260 260 35 152 159 148 193 183 208 306 194 347 217 263 186 14 12 8 1 7 29 36
7 0 330 310 9 57 75 91 107 19 325 330 74 51 358 335 6 23 314 354 335 8 341 313 284 249 197 108 12 157 195 126 204 206 217 255 160 323 4 358 3 12 23 28 30
46 62 266 332 67 48 90 54 60 39 19 24 20 352 7 11 342 331 302 74 13 346 11 6 312 287 103 195 180 144 247 233 196 177 225 241 180 23 9 5 5 16 16 17 23
19 47 296 8 51 41 48 358 346 17 26 28 86 39 22 6 314 307 311 11 31 29 0 9 296 279 235 250 205 203 254 245 237 241 247 240 183 34 21 20 15 20 18 21 23
52 321 329 55 76 19 341 344 61 29 30 28 26 56 15 22 303 322 342 2 35 358 10 351 339 311 296 294 25 34 40 2 321 289 244 253 157 37 24 19 22 20 20 20 25
64 43 344 35 56 95 33 5 25 34 72 342 282 79 335 243 237 299 304 310 347 317 291 179 219 270 290 307 303 304 21 359 317 269 340 21 130 22 21 27 13 16 18 16 15
27 41 100 8 356 11 28 28 51 21 14 1 37 59 28 303 309 240 303 313 283 288 11 336 286 263 277 290 308 55 15 36 79 346 168 60 101 28 348 23 35 21 17 13 10
74 28 348 338 2 23 20 3 35 9 322 338 29 340 324 269 277 301 326 250 235 293 29 352 281 319 296 284 286 80 36 74 49 359 34 64 82 8 337 349 32 28 16 9 3
349 348 87 332 21 51 30 37 13 16 298 8 339 317 304 296 289 278 259 257 249 276 283 271 227 52 264 332 161 67 12 72 85 36 360 38 345 337 342 355 31 24 15 2 355